This demonstration page uses our WeatherBlox Daily Observations layout. Learn more.

Left ArrowRight Arrow

44.8408, -93.29828

Hourly Observations for March 8, 2020

Temp ( °F °C ) Dew Point ( °F °C ) Humidity (%) Winds ( mph kmh ) Pressure ( in mb ) Visibility ( mi km ) Precip ( " mm )
12:53 am 00:53 Clear 50 10 26 -3.3 39 39 S 14 22 29.91 1013 10 16 0.00 0.00
1:53 am 01:53 Clear 50 10 26 -3.3 39 39 S 12 19 29.90 1013 10 16 0.00 0.00
3:53 am 03:53 Mostly Clear 50 10 27 -2.8 41 41 S 12 19 29.88 1012 10 16 0.00 0.00
4:53 am 04:53 Mostly Clear 51 10.6 28 -2.2 41 41 SSW 13 20 29.87 1011 10 16 0.00 0.00
5:53 am 05:53 Mostly Clear 50 10 28 -2.2 43 43 SSW 15 24 29.86 1011 10 16 0.00 0.00
6:53 am 06:53 Clear 49 9.4 29 -1.7 46 46 SSW 16 26 29.85 1011 10 16 0.00 0.00
7:53 am 07:53 Sunny 48 8.9 29 -1.7 48 48 SSW 12 19 29.85 1011 10 16 0.00 0.00
8:53 am 08:53 Sunny 49 9.4 30 -1.1 48 48 SSW 13 20 29.85 1011 10 16 0.00 0.00
9:53 am 09:53 Sunny 50 10 30 -1.1 46 46 SSW 15 24 29.83 1010 10 16 0.00 0.00
10:53 am 10:53 Mostly Sunny 52 11.1 31 -0.6 45 45 SSW 16 26 29.83 1010 10 16 0.00 0.00
11:53 am 11:53 Mostly Sunny 53 11.7 33 0.6 47 47 S 21 33 29.82 1010 10 16 0.00 0.00
12:53 pm 12:53 Mostly Sunny 55 12.8 35 1.7 47 47 SSW 16 26 29.82 1010 10 16 0.00 0.00
1:53 pm 13:53 Mostly Sunny 57 13.9 37 2.8 47 47 S 17 28 29.80 1009 10 16 0.00 0.00
2:53 pm 14:53 Mostly Sunny 58 14.4 38 3.3 48 48 S 17 28 29.78 1008 10 16 0.00 0.00
3:53 pm 15:53 Mostly Cloudy 58 14.4 40 4.4 51 51 S 14 22 29.77 1008 10 16 0.00 0.00
4:53 pm 16:53 Partly Cloudy 60 15.6 41 5 50 50 VRB 6 9 29.78 1008 10 16 0.00 0.00
5:53 pm 17:53 Mostly Sunny 60 15.6 41 5 50 50 SSW 12 19 29.78 1008 10 16 0.00 0.00
6:53 pm 18:53 Partly Cloudy 54 12.2 41 5 62 62 SSE 7 11 29.78 1008 10 16 0.00 0.00
7:53 pm 19:53 Partly Cloudy 52 11.1 40 4.4 64 64 SSE 7 11 29.78 1009 10 16 0.00 0.00
8:53 pm 20:53 Mostly Cloudy 53 11.7 41 5 64 64 SSE 7 11 29.78 1009 10 16 0.00 0.00
9:53 pm 21:53 Cloudy 50 10 41 5 71 71 SE 7 11 29.78 1008 10 16 0.00 0.00
10:53 pm 22:53 Cloudy 50 10 41 5 71 71 SSE 7 11 29.77 1008 10 16 0.00 0.00
11:53 pm 23:53 Cloudy 48 8.9 41 5 77 77 SSE 6 9 29.77 1008 10 16 0.00 0.00

Powered by AerisWeather